2023/09/29 00:00:00,11.7,19.0
2023/09/29 00:10:00,16.9,18.8
2023/09/29 00:20:00,16.7,18.9
2023/09/29 00:30:00,16.4,18.9
2023/09/29 00:40:00,16.0,18.9
2023/09/29 00:50:00,10.6,18.9
2023/09/29 01:00:00,14.7,18.6
2023/09/29 01:10:00,14.6,18.9
2023/09/29 01:20:00,14.9,18.9
2023/09/29 01:30:00, 4.7,19.0
2023/09/29 01:40:00, 0.3,18.9
2023/09/29 01:50:00, 0.3,18.8
2023/09/29 02:00:00, 0.3,18.9
2023/09/29 02:10:00, 1.6,18.6
2023/09/29 02:20:00, 0.4,18.6
2023/09/29 02:30:00, 0.3,18.7
2023/09/29 02:40:00, 0.4,19.0
2023/09/29 02:50:00, 0.6,18.9
2023/09/29 03:00:00, 6.4,18.7
2023/09/29 03:10:00,14.3,18.7
2023/09/29 03:20:00,13.9,18.5
2023/09/29 03:30:00,13.8,18.7
2023/09/29 03:40:00,13.9,18.7
2023/09/29 03:50:00,14.8,18.5
2023/09/29 04:00:00,15.0,18.5
2023/09/29 04:10:00,14.8,18.4
2023/09/29 04:20:00,14.7,18.3
2023/09/29 04:30:00,14.6,18.4
2023/09/29 04:40:00,14.6,18.4
2023/09/29 04:50:00,14.5,18.4
2023/09/29 05:00:00,14.4,18.4
2023/09/29 05:10:00,14.3,18.4
2023/09/29 05:20:00,14.2,18.4
2023/09/29 05:30:00,14.1,18.3
2023/09/29 05:40:00,13.6,18.4
2023/09/29 05:50:00,12.9,18.2
2023/09/29 06:00:00,12.7,18.2
2023/09/29 06:10:00,12.7,18.4
2023/09/29 06:20:00,12.6,18.4
2023/09/29 06:30:00,12.6,18.3
2023/09/29 06:40:00,12.6,18.2
2023/09/29 06:50:00,12.6,18.2
2023/09/29 07:00:00,12.6,18.4
2023/09/29 07:10:00,12.7,18.8
2023/09/29 07:20:00,12.7,18.9
2023/09/29 07:30:00,12.8,18.9
2023/09/29 07:40:00,13.2,18.8
2023/09/29 07:50:00,13.6,18.9
2023/09/29 08:00:00,13.6,19.1
2023/09/29 08:10:00,14.1,18.8
2023/09/29 08:20:00,14.7,19.7
2023/09/29 08:30:00,15.1,19.5
2023/09/29 08:40:00,15.2,19.6
2023/09/29 08:50:00,15.2,19.8
2023/09/29 09:00:00,15.2,20.2
2023/09/29 09:10:00,15.2,20.9
2023/09/29 09:20:00,14.1,21.9
2023/09/29 09:30:00, 0.0,23.0
2023/09/29 09:40:00,---,22.3
2023/09/29 09:50:00, 0.0,23.0
2023/09/29 10:00:00,---,23.2
2023/09/29 10:10:00,29.2,23.5
2023/09/29 10:20:00,26.3,24.1
2023/09/29 10:30:00,21.0,24.5
2023/09/29 10:40:00,---,25.0
2023/09/29 10:50:00,17.7,25.3
2023/09/29 11:00:00,---,25.4
2023/09/29 11:10:00,25.3,26.1
2023/09/29 11:20:00,---,26.8
2023/09/29 11:30:00,15.1,26.2
2023/09/29 11:40:00,27.0,26.7
2023/09/29 11:50:00,---,27.1
2023/09/29 12:00:00,19.4,27.2
2023/09/29 12:10:00,28.2,28.4
2023/09/29 12:20:00,29.9,29.6
2023/09/29 12:30:00,20.6,29.9
2023/09/29 12:40:00,14.7,29.7
2023/09/29 12:50:00,14.7,30.3
2023/09/29 13:00:00, 2.3,29.7
2023/09/29 13:10:00, 0.7,28.7
2023/09/29 13:20:00, 0.6,28.5
2023/09/29 13:30:00, 0.3,29.2
2023/09/29 13:40:00, 0.7,29.0
2023/09/29 13:50:00, 1.3,28.6
2023/09/29 14:00:00, 4.4,28.2
2023/09/29 14:10:00, 7.4,27.9
2023/09/29 14:20:00,10.8,27.6
2023/09/29 14:30:00,12.3,27.6
2023/09/29 14:40:00,12.7,27.4
2023/09/29 14:50:00,11.0,27.2
2023/09/29 15:00:00, 9.6,27.1
2023/09/29 15:10:00, 5.6,26.4
2023/09/29 15:20:00, 1.7,26.5
2023/09/29 15:30:00, 1.0,26.6
2023/09/29 15:40:00, 0.1,26.5
2023/09/29 15:50:00, 0.0,26.3
2023/09/29 16:00:00, 0.0,26.3
2023/09/29 16:10:00, 0.0,26.0
2023/09/29 16:20:00, 0.0,26.0
2023/09/29 16:30:00, 0.0,27.5
2023/09/29 16:40:00, 0.1,27.2
2023/09/29 16:50:00, 0.1,26.7
2023/09/29 17:00:00,---,26.1
2023/09/29 17:10:00, 2.3,25.3
2023/09/29 17:20:00, 1.7,23.2
2023/09/29 17:30:00, 3.1,22.3
2023/09/29 17:40:00, 4.2,21.9
2023/09/29 17:50:00, 3.3,21.5
2023/09/29 18:00:00, 2.3,20.9
2023/09/29 18:10:00, 0.5,20.8
2023/09/29 18:20:00, 0.2,20.4
2023/09/29 18:30:00, 0.2,20.2
2023/09/29 18:40:00, 0.0,19.7
2023/09/29 18:50:00, 0.2,19.6
2023/09/29 19:00:00, 0.2,19.7
2023/09/29 19:10:00, 0.1,19.3
2023/09/29 19:20:00, 0.2,19.1
2023/09/29 19:30:00, 0.5,19.4
2023/09/29 19:40:00, 0.8,19.0
2023/09/29 19:50:00, 1.0,18.9
2023/09/29 20:00:00, 1.0,18.9
2023/09/29 20:10:00, 1.4,18.9
2023/09/29 20:20:00, 2.1,18.8
2023/09/29 20:30:00, 2.6,18.7
2023/09/29 20:40:00, 3.0,18.7
2023/09/29 20:50:00, 3.1,18.5
2023/09/29 21:00:00, 3.7,18.2
2023/09/29 21:10:00, 3.4,18.3
2023/09/29 21:20:00, 3.5,18.0
2023/09/29 21:30:00, 9.4,18.2
2023/09/29 21:40:00,15.6,18.0
2023/09/29 21:50:00,15.7,17.9
2023/09/29 22:00:00,15.7,17.8
2023/09/29 22:10:00,15.4,17.8
2023/09/29 22:20:00,12.5,17.6
2023/09/29 22:30:00, 4.9,17.8
2023/09/29 22:40:00, 1.4,17.5
2023/09/29 22:50:00, 1.9,17.3
2023/09/29 23:00:00, 2.1,17.6
2023/09/29 23:10:00, 2.2,17.2
2023/09/29 23:20:00, 2.3,17.2
2023/09/29 23:30:00, 2.3,17.3
2023/09/29 23:40:00, 2.7,17.0
2023/09/29 23:50:00, 2.8,17.1
